Delaware, OH

1:39 AM EDT on April 25, 2017 (GMT -0400)
Delaware Municipal

Weather History for KDLZ - January, 2014

Change the Weather History Date:

Sunday, January 5, 2014

  Actual Average Record
Temperature  
Mean Temperature 34 °F -  
Max Temperature 37 °F 35 °F 61 °F (1939)
Min Temperature 30 °F 17 °F -9 °F (1981)
Degree Days  
Heating Degree Days 32    
Moisture  
Dew Point 28 °F    
Average Humidity 83    
Maximum Humidity 100    
Minimum Humidity 60    
Precipitation  
Precipitation 0.20 in - - ()
Sea Level Pressure  
Sea Level Pressure 29.80 in    
Wind  
Wind Speed 4 mph (SE)    
Max Wind Speed 29 mph    
Max Gust Speed 38 mph    
Visibility 7 miles    
Events Rain , Snow    
Averages and records for this station are not official NWS values.
T = Trace of Precipitation, MM = Missing Value Source: NWS Daily Summary

Daily Weather History Graph

Daily Weather History Graph

Search for Another Location

Airport or City:

Trip Planner

Search our weather history database for the weather conditions in past years. The results will help you decide how hot, cold, wet, or windy it might be!

Date:

Astronomy

Jan. 05, 2014 Rise Set
Actual Time 7:55 AM EST 5:20 PM EST
Civil Twilight 7:24 AM EST 5:51 PM EST
Nautical Twilight 6:50 AM EST 6:25 PM EST
Astronomical Twilight 6:18 AM EST 6:58 PM EST
Moon 10:35 AM EST (1/5) 10:48 PM EST (1/5)
Length of Visible Light 10h 26m
Length of Day
9h 25m
Waxing Crescent, 24% of the Moon is Illuminated
Jan 5
Waxing Crescent
Jan 7
First Quarter
Jan 15
Full
Jan 24
Last Quarter
Jan 30
New

Hourly Weather History & Observations

Time (EST) Temp. Windchill Dew Point Humidity Pressure Visibility Wind Dir Wind Speed Gust Speed Precip Events Conditions
12:00 AM 30.2 °F - 21.2 °F 69% 30.07 in 10.0 mi Calm Calm - N/A   Overcast
12:20 AM 30.2 °F 26.7 °F 21.2 °F 69% 30.07 in 10.0 mi South 3.5 mph - N/A   Overcast
12:39 AM 30.2 °F 26.7 °F 21.2 °F 69% 30.07 in 10.0 mi SSE 3.5 mph - N/A   Overcast
1:00 AM 30.2 °F 25.4 °F 21.2 °F 69% 30.06 in 10.0 mi South 4.6 mph - N/A   Overcast
1:20 AM 30.2 °F 24.3 °F 21.2 °F 69% 30.07 in 10.0 mi SSE 5.8 mph - N/A   Overcast
1:39 AM 30.2 °F 24.3 °F 19.4 °F 64% 30.06 in 10.0 mi SSE 5.8 mph - N/A   Overcast
2:00 AM 30.2 °F 24.3 °F 19.4 °F 64% 30.06 in 10.0 mi SSE 5.8 mph - N/A   Overcast
2:20 AM 30.2 °F 25.4 °F 19.4 °F 64% 30.05 in 10.0 mi SSE 4.6 mph - N/A   Overcast
2:40 AM 30.2 °F 25.4 °F 21.2 °F 69% 30.06 in 10.0 mi SSE 4.6 mph - N/A   Overcast
3:00 AM 30.2 °F - 19.4 °F 64% 30.05 in 10.0 mi Calm Calm - N/A   Overcast
3:20 AM 30.2 °F - 19.4 °F 64% 30.05 in 10.0 mi Calm Calm - N/A   Overcast
3:40 AM 30.2 °F 24.3 °F 19.4 °F 64% 30.05 in 10.0 mi SSE 5.8 mph - N/A   Overcast
4:00 AM 30.2 °F 25.4 °F 19.4 °F 64% 30.04 in 10.0 mi SSE 4.6 mph - N/A   Overcast
4:20 AM - - - N/A% 30.04 in - SSE 3.5 mph - N/A   Unknown
4:40 AM 32.0 °F - 19.4 °F 60% 30.03 in 10.0 mi Calm Calm - N/A   Overcast
4:59 AM 30.2 °F - 21.2 °F 69% 30.03 in 10.0 mi Calm Calm - N/A   Overcast
5:20 AM 32.0 °F - 21.2 °F 64% 30.03 in 10.0 mi Calm Calm - N/A   Overcast
5:40 AM 30.2 °F - 21.2 °F 69% 30.02 in 10.0 mi Calm Calm - N/A   Overcast
5:59 AM 30.2 °F 25.4 °F 23.0 °F 75% 30.01 in 10.0 mi SSE 4.6 mph - N/A   Overcast
6:20 AM 32.0 °F 27.5 °F 21.2 °F 64% 30.00 in 10.0 mi SE 4.6 mph - N/A   Overcast
6:40 AM 32.0 °F 28.7 °F 21.2 °F 64% 30.01 in 10.0 mi South 3.5 mph - N/A   Overcast
6:59 AM 32.0 °F - 21.2 °F 64% 30.01 in 10.0 mi Calm Calm - N/A   Overcast
7:20 AM 32.0 °F - 23.0 °F 69% 30.02 in 10.0 mi Calm Calm - N/A   Overcast
7:40 AM 30.2 °F 26.7 °F 23.0 °F 75% 30.01 in 10.0 mi SSE 3.5 mph - N/A   Overcast
8:00 AM 32.0 °F - 23.0 °F 69% 30.01 in 10.0 mi Calm Calm - N/A   Overcast
8:20 AM 32.0 °F - 23.0 °F 69% 30.01 in 10.0 mi Calm Calm - N/A   Overcast
8:39 AM 32.0 °F - 24.8 °F 75% 30.01 in 10.0 mi Calm Calm - N/A   Overcast
9:00 AM 32.0 °F - 23.0 °F 69% 30.01 in 10.0 mi Calm Calm - N/A   Overcast
9:20 AM 32.0 °F - 26.6 °F 80% 30.00 in 10.0 mi Calm Calm - N/A   Overcast
9:39 AM 32.0 °F 28.7 °F 24.8 °F 75% 29.99 in 10.0 mi ESE 3.5 mph - N/A   Overcast
10:00 AM 32.0 °F 26.4 °F 24.8 °F 75% 29.98 in 7.0 mi SE 5.8 mph - N/A   Overcast
10:20 AM 32.0 °F 25.6 °F 28.4 °F 87% 29.95 in 2.5 mi SE 6.9 mph - N/A Snow Light Snow
10:39 AM 32.0 °F 25.6 °F 30.2 °F 93% 29.95 in 7.0 mi SE 6.9 mph - N/A   Light Drizzle
11:00 AM 32.0 °F 26.4 °F 32.0 °F 100% 29.93 in 5.0 mi ESE 5.8 mph - N/A   Overcast
11:20 AM 32.0 °F 26.4 °F 32.0 °F 100% 29.91 in 5.0 mi ESE 5.8 mph - N/A Rain Light Rain
11:39 AM 32.0 °F 27.5 °F 32.0 °F 100% 29.90 in 4.0 mi East 4.6 mph - N/A Rain Light Rain
12:00 PM 32.0 °F 27.5 °F 32.0 °F 100% 29.86 in 4.0 mi East 4.6 mph - N/A   Light Drizzle
12:20 PM 32.0 °F 25.6 °F 32.0 °F 100% 29.83 in 3.0 mi East 6.9 mph - N/A   Light Drizzle
12:39 PM 32.0 °F 26.4 °F 32.0 °F 100% 29.82 in 4.0 mi East 5.8 mph - N/A   Overcast
1:00 PM 33.8 °F 28.6 °F 32.0 °F 93% 29.79 in 7.0 mi ESE 5.8 mph - N/A   Overcast
1:20 PM 33.8 °F 26.4 °F 32.0 °F 93% 29.75 in 10.0 mi ESE 9.2 mph - N/A   Overcast
1:39 PM 33.8 °F 24.8 °F 32.0 °F 93% 29.73 in 10.0 mi SE 12.7 mph - N/A   Overcast
2:00 PM 35.6 °F 27.5 °F 32.0 °F 87% 29.70 in 10.0 mi SE 11.5 mph 17.3 mph N/A   Overcast
2:20 PM 37.4 °F 30.8 °F 32.0 °F 81% 29.69 in 10.0 mi SE 9.2 mph - N/A   Overcast
2:39 PM 37.4 °F 32.1 °F 32.0 °F 81% 29.67 in 10.0 mi SE 6.9 mph - N/A   Light Drizzle
3:00 PM 37.4 °F 30.8 °F 32.0 °F 81% 29.65 in 10.0 mi SE 9.2 mph - N/A   Overcast
3:20 PM 37.4 °F 32.1 °F 32.0 °F 81% 29.65 in 10.0 mi SSE 6.9 mph - N/A Rain Light Rain
3:40 PM 37.4 °F 32.8 °F 32.0 °F 81% 29.65 in 10.0 mi SSE 5.8 mph - N/A   Drizzle
4:00 PM 37.4 °F 32.1 °F 33.8 °F 87% 29.66 in 7.0 mi SE 6.9 mph - N/A Rain Light Rain
4:20 PM 37.4 °F - 33.8 °F 87% 29.65 in 3.0 mi Calm Calm - 0.02 in Rain Rain
4:40 PM 35.6 °F - 33.8 °F 93% 29.63 in 5.0 mi Calm Calm - 0.03 in Rain Light Rain
5:00 PM 35.6 °F 32.8 °F 33.8 °F 93% 29.61 in 3.0 mi NNE 3.5 mph - 0.01 in Rain Light Rain
5:20 PM 35.6 °F 31.7 °F 33.8 °F 93% 29.59 in 3.0 mi East 4.6 mph - 0.02 in Rain Rain
5:39 PM 33.8 °F 28.6 °F 33.8 °F 100% 29.57 in 4.0 mi East 5.8 mph - 0.05 in Rain Rain
6:00 PM 33.8 °F 28.6 °F 33.8 °F 100% 29.55 in 5.0 mi East 5.8 mph - N/A Rain Light Rain
6:20 PM 35.6 °F - 33.8 °F 93% 29.54 in 5.0 mi Calm Calm - N/A Rain Light Rain
6:39 PM 33.8 °F - 33.8 °F 100% 29.53 in 3.0 mi Calm Calm - 0.01 in Rain Light Rain
7:00 PM 33.8 °F - 33.8 °F 100% 29.52 in 3.0 mi Calm Calm - N/A Rain Rain
7:20 PM 33.8 °F - 33.8 °F 100% 29.50 in 2.0 mi Calm Calm - 0.02 in Rain Rain
7:39 PM 33.8 °F - 33.8 °F 100% 29.48 in 2.0 mi Calm Calm - 0.04 in Rain Rain
8:00 PM 35.6 °F 30.7 °F 35.6 °F 100% 29.46 in 5.0 mi SE 5.8 mph - N/A Rain Light Rain
8:20 PM 37.4 °F 33.8 °F 35.6 °F 93% 29.45 in 7.0 mi South 4.6 mph - 0.02 in Rain Rain
8:39 PM 37.4 °F 30.8 °F 35.6 °F 93% 29.43 in 7.0 mi SSE 9.2 mph - 0.03 in Rain Light Rain
9:00 PM 37.4 °F 30.8 °F 37.4 °F 100% 29.41 in 5.0 mi SSE 9.2 mph - N/A   Drizzle
9:20 PM 37.4 °F 30.8 °F 37.4 °F 100% 29.38 in 7.0 mi SSE 9.2 mph - N/A   Drizzle
9:39 PM 37.4 °F 28.5 °F 37.4 °F 100% 29.39 in - West 15.0 mph - N/A Rain Light Rain
10:00 PM 33.8 °F 22.2 °F 32.0 °F 93% 29.43 in 2.5 mi WNW 20.7 mph 24.2 mph N/A Rain Rain
10:20 PM 32.0 °F 21.2 °F 32.0 °F 100% 29.43 in 4.0 mi NW 16.1 mph - 0.02 in Rain Rain
10:40 PM 32.0 °F 21.6 °F 32.0 °F 100% 29.43 in 3.0 mi NW 15.0 mph 19.6 mph 0.03 in Snow Light Snow
11:00 PM 32.0 °F 22.1 °F 30.2 °F 93% 29.44 in 4.0 mi NW 13.8 mph 20.7 mph N/A Snow Light Snow
11:20 PM 30.2 °F 19.8 °F 30.2 °F 100% 29.44 in 2.5 mi NW 13.8 mph 19.6 mph N/A Snow Light Snow
11:40 PM 30.2 °F 15.4 °F 28.4 °F 93% 29.48 in 2.0 mi WNW 28.8 mph 38.0 mph 0.01 in Snow Light Snow